Theta_e
322 322 319 317 318 317 317 315 315 310 309 308 307 308 310 310 309 306 305 302 300 300
322 321 319 318 318 318 317 316 310 310 308 306 305 304 306 308 307 306 304 302 300 297
321 321 321 318 316 317 315 312 309 308 307 305 304 302 302 303 304 303 302 299 296 294
320 320 320 317 316 316 313 311 309 309 307 305 302 301 300 299 299 300 297 296 296 293
319 319 319 317 316 316 311 311 311 308 306 304 303 301 299 297 297 297 296 293 291 292
318 318 318 318 316 313 312 309 309 306 304 303 302 300 300 299 295 294 293 290 289 288
318 318 319 318 315 312 311 309 307 306 305 304 303 301 299 297 293 292 291 289 288 287
317 319 319 317 314 313 310 310 309 307 305 304 301 298 296 294 293 292 289 288 287 287
310 313 314 315 313 311 309 307 304 303 300 298 298 295 295 293 291 290 289 287 286 286
299 300 299 299 300 299 299 297 297 297 297 296 297 295 295 292 291 289 288 288 286 284
294 295 294 294 294 294 294 294 294 293 294 293 293 294 293 290 289 289 288 288 286 285
291 292 292 292 292 291 290 290 290 289 289 290 289 292 292 290 288 287 287 286 285 285
289 290 291 292 291 289 289 289 287 288 289 288 288 292 292 290 287 285 284 283 283 284
287 287 289 290 287 286 287 286 287 287 286 287 288 289 292 291 286 286 284 284 282 283
Wind_Speed
18 12 12 13 11 10 10 11 12 12 11 12 12 11 11 9 11 12 11 13 9 7
16 17 14 14 13 11 11 9 12 14 13 12 12 12 12 10 12 11 12 12 10 6
18 17 14 12 15 14 12 12 12 13 14 13 12 12 12 9 9 11 9 8 11 9
15 15 15 13 14 15 12 13 14 15 14 14 14 13 13 11 11 13 11 9 12 11
13 13 15 15 15 14 15 14 15 13 13 14 14 14 15 15 14 15 13 8 4 9
12 13 15 15 12 12 13 13 12 12 14 14 15 15 17 16 12 10 9 9 10 8
13 14 13 13 12 13 14 13 14 15 17 17 16 16 13 12 11 12 9 10 11 11
10 11 10 11 12 12 12 13 13 12 12 10 10 9 13 14 14 15 14 11 11 11
2 6 10 12 12 11 12 11 8 9 11 10 8 16 19 15 14 11 11 13 11 10
6 5 4 4 1 4 5 5 6 8 10 12 10 23 24 22 11 12 12 11 9 8
8 5 4 3 3 3 3 5 5 6 7 5 6 16 19 18 10 10 12 13 14 12
7 7 5 6 6 3 3 3 4 3 6 7 6 16 18 18 10 10 11 9 11 12
9 6 6 6 6 3 2 4 4 5 5 6 7 16 21 18 8 8 6 6 7 12
7 6 6 5 2 2 1 2 4 4 4 6 7 11 18 20 8 8 8 7 5 5
Wind_Direction
202 203 200 193 193 195 196 198 189 192 192 196 190 192 192 191 197 194 199 193 189 194
201 204 198 196 193 197 194 190 182 190 194 194 194 193 191 197 196 193 195 197 191 185
199 202 199 185 194 198 192 178 180 190 197 197 196 192 194 200 193 193 196 190 182 182
201 200 196 193 197 199 186 183 189 196 197 197 196 195 195 200 191 192 190 191 190 187
196 193 198 199 199 193 194 190 198 195 196 199 199 198 200 195 196 195 192 180 204 188
194 192 203 207 198 193 194 194 193 189 197 201 204 200 204 203 192 177 173 172 172 207
197 202 204 205 197 195 200 197 193 203 202 202 201 201 197 195 175 164 163 173 180 197
208 205 203 203 203 205 203 207 217 188 221 207 196 191 181 174 180 175 176 186 183 200
317 201 198 203 203 199 203 203 187 186 187 179 185 175 175 168 171 167 191 182 189 193
358 360 12 26 109 189 186 148 176 173 173 183 187 177 193 177 171 166 177 181 176 187
343 339 341 316 236 206 167 190 187 187 197 176 166 179 169 171 165 174 181 171 176 182
311 319 325 267 246 209 195 208 188 190 179 183 182 177 176 167 177 176 179 179 185 180
320 314 299 286 263 228 166 233 218 192 165 186 168 177 175 174 165 163 173 159 158 158
311 308 302 292 258 310 262 157 205 196 180 180 174 182 178 177 184 173 163 152 164 152